When you browse on this site, cookies collect data to enhance your experience and personalize the content and advertising you see.
Visit our Privacy Policy to learn more. By continuing to use the site, you agree to this use of cookies and data.
  • en France
  • Liste des pays
  • À 7 jours
  • Température de l'eau
  • Carte satellitaire
  • Carte météo
  • Widgets météo
  • user-avatar
    Se connecter

    Météo par heure à Mayrhofen

    Ce jour, 11 Décembre, Mardi

    Heure Température Précipitation Vent Pression Humidité
    00:00 -9°C° 1.1 mm 3 m/s 614 mmHg 94%
    01:00 -9°C° 1.1 mm 3 m/s 614 mmHg 94%
    02:00 -9°C° 0.5 mm 3 m/s 614 mmHg 94%
    03:00 -9°C° 0.5 mm 3 m/s 614 mmHg 94%
    04:00 -9°C° 0.5 mm 2 m/s 614 mmHg 94%
    05:00 -9°C° 0.4 mm 2 m/s 614 mmHg 94%
    06:00 -9°C° 0.4 mm 2 m/s 614 mmHg 93%
    07:00 -10°C° 0.4 mm 2 m/s 614 mmHg 93%
    08:00 -9°C° 0.4 mm 2 m/s 614 mmHg 91%
    09:00 -9°C° 0.4 mm 2 m/s 615 mmHg 89%
    10:00 -10°C° 0.4 mm 3 m/s 615 mmHg 87%
    11:00 -9°C° 0.3 mm 3 m/s 615 mmHg 85%
    12:00 -9°C° 0.3 mm 3 m/s 615 mmHg 82%
    13:00 -8°C° 0.3 mm 3 m/s 615 mmHg 80%
    14:00 -8°C° 0.1 mm 2 m/s 615 mmHg 83%
    15:00 -9°C° 0.1 mm 2 m/s 614 mmHg 85%
    16:00 -10°C° 0.1 mm 2 m/s 614 mmHg 88%
    17:00 -12°C° 0.1 mm 2 m/s 614 mmHg 89%
    18:00 -13°C° 0.1 mm 2 m/s 614 mmHg 90%
    19:00 -14°C° 0.1 mm 2 m/s 614 mmHg 90%
    20:00 -14°C° 0.1 mm 2 m/s 614 mmHg 89%
    21:00 -14°C° 0.1 mm 2 m/s 613 mmHg 88%
    22:00 -15°C° 0.1 mm 2 m/s 613 mmHg 87%
    23:00 -15°C° 0 mm 2 m/s 613 mmHg 87%

    Demain, 12 Décembre, Mercredi

    Heure Température Précipitation Vent Pression Humidité
    00:00 -15°C° 0 mm 2 m/s 613 mmHg 87%
    01:00 -16°C° 0 mm 2 m/s 613 mmHg 87%
    02:00 -16°C° 0 mm 2 m/s 613 mmHg 87%
    03:00 -16°C° 0 mm 2 m/s 613 mmHg 87%
    04:00 -16°C° 0 mm 2 m/s 612 mmHg 88%
    05:00 -16°C° 0 mm 2 m/s 612 mmHg 88%
    06:00 -16°C° 0 mm 2 m/s 612 mmHg 88%
    07:00 -16°C° 0 mm 2 m/s 612 mmHg 88%
    08:00 -13°C° 0 mm 1 m/s 613 mmHg 86%
    09:00 -11°C° 0 mm 1 m/s 614 mmHg 84%
    10:00 -10°C° 0 mm 1 m/s 614 mmHg 83%
    11:00 -8°C° 0 mm 1 m/s 614 mmHg 79%
    12:00 -7°C° 0 mm 1 m/s 615 mmHg 76%
    13:00 -6°C° 0 mm 1 m/s 615 mmHg 73%
    14:00 -7°C° 0 mm 1 m/s 614 mmHg 78%
    15:00 -9°C° 0 mm 1 m/s 613 mmHg 83%
    16:00 -10°C° 0 mm 1 m/s 612 mmHg 88%
    17:00 -11°C° 0 mm 1 m/s 612 mmHg 89%
    18:00 -12°C° 0 mm 1 m/s 612 mmHg 89%
    19:00 -13°C° 0 mm 1 m/s 611 mmHg 90%
    20:00 -14°C° 0 mm 1 m/s 611 mmHg 89%
    21:00 -14°C° 0 mm 1 m/s 611 mmHg 88%
    22:00 -14°C° 0 mm 1 m/s 611 mmHg 86%
    23:00 -14°C° 0 mm 1 m/s 611 mmHg 85%

    Après-demain, 13 Décembre, Jeudi

    Heure Température Précipitation Vent Pression Humidité
    00:00 -15°C° 0 mm 1 m/s 610 mmHg 84%
    01:00 -15°C° 0 mm 1 m/s 610 mmHg 82%
    02:00 -15°C° 0 mm 1 m/s 610 mmHg 82%
    03:00 -15°C° 0 mm 1 m/s 610 mmHg 82%
    04:00 -15°C° 0 mm 1 m/s 609 mmHg 82%
    05:00 -15°C° 0 mm 1 m/s 609 mmHg 82%
    06:00 -15°C° 0 mm 1 m/s 609 mmHg 82%
    07:00 -18°C° 0 mm 2 m/s 609 mmHg 82%
    08:00 -16°C° 0 mm 2 m/s 609 mmHg 81%
    09:00 -14°C° 0 mm 2 m/s 610 mmHg 81%
    10:00 -13°C° 0 mm 2 m/s 610 mmHg 80%
    11:00 -10°C° 0 mm 2 m/s 611 mmHg 78%
    12:00 -9°C° 0 mm 2 m/s 611 mmHg 76%
    13:00 -7°C° 0 mm 1 m/s 611 mmHg 74%
    14:00 -8°C° 0 mm 1 m/s 610 mmHg 78%
    15:00 -9°C° 0 mm 1 m/s 610 mmHg 82%
    16:00 -11°C° 0 mm 1 m/s 609 mmHg 86%
    17:00 -12°C° 0 mm 1 m/s 609 mmHg 86%
    18:00 -13°C° 0 mm 1 m/s 609 mmHg 85%
    19:00 -16°C° 0 mm 2 m/s 609 mmHg 85%
    20:00 -16°C° 0 mm 2 m/s 609 mmHg 84%
    21:00 -16°C° 0 mm 2 m/s 610 mmHg 84%
    22:00 -16°C° 0 mm 2 m/s 610 mmHg 83%
    23:00 -16°C° 0 mm 2 m/s 610 mmHg 82%

    14 Décembre, Vendredi

    Heure Température Précipitation Vent Pression Humidité
    00:00 -16°C° 0 mm 2 m/s 610 mmHg 82%
    01:00 -16°C° 0 mm 2 m/s 610 mmHg 81%
    02:00 -16°C° 0 mm 2 m/s 610 mmHg 80%
    03:00 -16°C° 0 mm 2 m/s 610 mmHg 78%
    04:00 -16°C° 0 mm 2 m/s 610 mmHg 77%
    05:00 -14°C° 0 mm 1 m/s 610 mmHg 75%
    06:00 -15°C° 0 mm 1 m/s 610 mmHg 74%
    07:00 -15°C° 0 mm 1 m/s 610 mmHg 72%
    08:00 -13°C° 0 mm 1 m/s 611 mmHg 71%
    09:00 -11°C° 0 mm 1 m/s 612 mmHg 71%
    10:00 -9°C° 0 mm 1 m/s 612 mmHg 70%
    11:00 -8°C° 0 mm 1 m/s 613 mmHg 66%
    12:00 -6°C° 0 mm 1 m/s 613 mmHg 63%
    13:00 -5°C° 0 mm 0 m/s 614 mmHg 59%
    14:00 -7°C° 0 mm 0 m/s 613 mmHg 64%
    15:00 -9°C° 0 mm 0 m/s 612 mmHg 70%
    16:00 -10°C° 0 mm 0 m/s 612 mmHg 75%
    17:00 -11°C° 0 mm 0 m/s 612 mmHg 72%
    18:00 -12°C° 0 mm 1 m/s 612 mmHg 70%
    19:00 -13°C° 0 mm 1 m/s 612 mmHg 67%
    20:00 -13°C° 0 mm 1 m/s 613 mmHg 63%
    21:00 -13°C° 0 mm 1 m/s 613 mmHg 59%
    22:00 -13°C° 0 mm 1 m/s 613 mmHg 55%
    23:00 -13°C° 0 mm 1 m/s 613 mmHg 52%

    15 Décembre, Samedi

    Heure Température Précipitation Vent Pression Humidité
    00:00 -13°C° 0 mm 1 m/s 614 mmHg 50%
    01:00 -15°C° 0 mm 2 m/s 614 mmHg 48%
    02:00 -15°C° 0 mm 2 m/s 614 mmHg 48%
    03:00 -15°C° 0 mm 2 m/s 614 mmHg 49%
    04:00 -15°C° 0 mm 2 m/s 614 mmHg 49%
    05:00 -15°C° 0 mm 2 m/s 614 mmHg 51%
    06:00 -15°C° 0 mm 2 m/s 615 mmHg 53%
    07:00 -15°C° 0 mm 2 m/s 615 mmHg 54%
    08:00 -13°C° 0 mm 2 m/s 616 mmHg 58%
    09:00 -12°C° 0 mm 2 m/s 617 mmHg 62%
    10:00 -8°C° 0 mm 1 m/s 617 mmHg 66%
    11:00 -7°C° 0 mm 1 m/s 618 mmHg 65%
    12:00 -4°C° 0 mm 1 m/s 618 mmHg 64%
    13:00 -2°C° 0 mm 1 m/s 618 mmHg 63%
    14:00 -4°C° 0 mm 1 m/s 618 mmHg 67%
    15:00 -7°C° 0 mm 1 m/s 617 mmHg 71%
    16:00 -8°C° 0 mm 1 m/s 617 mmHg 76%
    17:00 -9°C° 0 mm 1 m/s 617 mmHg 71%
    18:00 -10°C° 0 mm 1 m/s 617 mmHg 67%
    19:00 -12°C° 0 mm 2 m/s 617 mmHg 63%
    20:00 -12°C° 0 mm 2 m/s 617 mmHg 60%
    21:00 -12°C° 0 mm 2 m/s 617 mmHg 56%
    22:00 -12°C° 0 mm 2 m/s 617 mmHg 53%
    23:00 -10°C° 0 mm 2 m/s 617 mmHg 52%

    16 Décembre, Dimanche

    Heure Température Précipitation Vent Pression Humidité
    00:00 -10°C° 0 mm 2 m/s 617 mmHg 51%
    01:00 -9°C° 0 mm 2 m/s 617 mmHg 49%
    02:00 -8°C° 0 mm 2 m/s 617 mmHg 51%
    03:00 -8°C° 0 mm 2 m/s 617 mmHg 53%
    04:00 -7°C° 0 mm 2 m/s 617 mmHg 54%
    05:00 -4°C° 0.1 mm 1 m/s 617 mmHg 58%
    06:00 -4°C° 0.1 mm 1 m/s 618 mmHg 61%
    07:00 -3°C° 0.1 mm 1 m/s 618 mmHg 65%
    08:00 -2°C° 0.3 mm 1 m/s 618 mmHg 70%
    09:00 -1°C° 0.3 mm 1 m/s 618 mmHg 75%
    10:00 -1°C° 0.3 mm 1 m/s 618 mmHg 79%
    11:00 0°C° 0.7 mm 1 m/s 618 mmHg 82%
    12:00 +1°C° 0.7 mm 1 m/s 618 mmHg 85%
    13:00 +1°C° 0.7 mm 1 m/s 618 mmHg 87%
    14:00 +1°C° 0.7 mm 1 m/s 618 mmHg 88%
    15:00 +1°C° 0.7 mm 1 m/s 618 mmHg 88%
    16:00 +1°C° 0.7 mm 1 m/s 617 mmHg 88%
    17:00 +1°C° 0.2 mm 1 m/s 617 mmHg 88%
    18:00 0°C° 0.2 mm 1 m/s 617 mmHg 87%
    19:00 0°C° 0.2 mm 1 m/s 617 mmHg 87%
    20:00 0°C° 0.4 mm 1 m/s 617 mmHg 87%
    21:00 0°C° 0.4 mm 1 m/s 617 mmHg 87%
    22:00 0°C° 0.4 mm 1 m/s 617 mmHg 88%
    23:00 0°C° 1.1 mm 1 m/s 617 mmHg 90%
    Voir plus